EHI
3 7 13 16 12 5 2 1 0 0 0 0 0 0 1 1 1 3 19 51 76 70 55 47 41 25 9 3 3 3 1 0 0 0 0 0 0 0 0 0 0 0 0 0 0 0 0 0 0
3 6 10 9 6 2 1 0 0 0 0 0 0 0 1 1 1 7 29 62 78 69 54 48 42 29 14 5 4 4 2 0 0 0 0 0 0 1 1 1 0 0 0 0 0 0 0 0 0
1 3 5 3 1 0 0 0 0 0 0 0 0 1 2 2 4 16 44 71 80 69 56 50 44 32 20 11 7 5 3 1 0 0 0 0 1 2 2 1 0 0 0 0 0 0 0 0 0
2 2 2 1 0 0 0 0 0 0 0 0 2 5 7 8 14 30 53 74 82 72 59 52 45 35 24 16 10 7 3 1 1 2 1 1 1 2 2 1 0 0 0 0 0 0 0 0 0
4 3 2 1 0 0 0 0 0 0 0 0 4 15 21 22 30 42 55 73 83 75 61 54 50 38 25 15 10 7 3 1 2 3 3 2 2 2 1 0 0 0 0 0 0 0 0 0 0
2 2 1 0 0 0 0 0 0 0 0 0 5 22 38 41 41 45 52 67 79 77 65 58 52 38 22 12 8 5 2 1 2 5 6 4 1 1 0 0 0 0 0 0 0 0 0 0 0
1 1 0 0 0 0 0 0 0 0 0 0 6 26 48 54 48 45 48 57 71 77 69 58 47 34 19 9 5 3 1 1 3 7 7 4 1 0 0 1 1 1 0 0 0 0 0 0 0
0 0 0 0 0 0 0 0 0 0 0 1 7 28 54 63 55 50 49 53 66 75 68 53 41 31 18 8 3 2 1 1 3 6 5 2 1 0 1 2 2 1 0 0 0 0 0 0 0
0 0 0 0 0 0 0 0 0 0 2 5 13 34 60 69 64 58 57 60 69 74 65 49 40 30 18 9 3 2 1 0 1 2 2 1 0 0 1 3 3 1 0 0 0 0 0 0 0
0 0 0 0 0 0 0 0 0 1 4 10 23 44 64 73 71 67 65 69 76 76 66 53 44 32 21 14 8 3 1 0 0 1 0 0 0 0 1 3 2 1 0 0 0 0 0 0 0
0 0 0 0 0 0 0 0 0 2 6 13 30 51 67 74 75 72 69 73 79 78 69 61 53 40 32 28 16 5 3 1 1 2 2 1 1 1 1 1 1 0 0 0 0 0 0 1 1
0 0 0 0 0 0 0 0 1 3 7 14 31 52 67 73 75 74 73 77 80 78 71 66 60 52 49 41 21 8 6 5 6 7 5 5 4 4 5 3 2 1 1 1 1 2 2 2 2
0 0 0 0 0 0 0 0 2 3 6 14 30 51 66 73 75 76 78 81 81 79 75 70 65 63 62 51 28 16 17 19 19 14 10 10 10 11 12 9 7 5 4 5 6 5 4 2 1
0 0 0 0 0 0 0 1 3 4 6 13 28 47 64 74 76 78 82 82 80 77 75 72 68 66 65 53 36 29 31 34 31 24 19 18 18 19 18 14 11 9 8 9 8 6 4 2 2
0 0 0 0 0 0 0 1 3 4 6 13 25 43 62 74 77 79 82 82 78 73 70 68 64 61 58 49 41 37 35 36 36 33 30 26 25 24 20 16 11 9 8 8 6 3 2 3 3
0 0 0 0 0 0 0 1 2 1 5 14 26 43 64 76 76 76 78 77 72 68 64 60 56 55 52 48 46 41 36 36 37 38 36 31 28 25 20 16 12 8 6 5 3 2 2 2 2
0 0 0 0 0 0 0 0 0 0 5 16 30 47 66 76 74 71 72 69 65 62 60 56 53 51 51 50 48 45 42 40 40 40 39 34 27 21 18 16 12 7 6 4 4 4 3 1 1
0 0 0 0 0 0 0 0 1 2 7 17 31 49 66 73 71 68 66 63 59 57 57 54 49 47 47 47 46 44 42 42 41 39 37 32 24 18 16 15 11 8 7 6 5 4 2 0 0
0 0 0 0 0 0 0 1 3 6 8 15 31 49 62 69 70 68 65 60 56 53 53 50 44 40 41 44 44 41 38 37 35 33 32 29 23 16 14 14 12 10 8 6 3 1 0 0 0
0 0 0 0 0 0 0 2 7 9 9 13 28 43 56 66 70 68 64 60 56 52 48 46 42 37 36 40 41 38 36 34 28 26 28 27 21 14 13 15 13 10 9 4 1 0 0 0 0
0 0 0 0 0 0 0 2 8 12 12 13 22 34 47 59 67 66 61 57 54 50 45 42 41 39 36 36 36 35 33 28 22 22 25 24 18 11 11 15 13 9 6 2 0 0 0 0 0
0 0 0 0 0 0 0 1 6 13 14 13 18 27 37 51 62 62 58 54 49 45 41 40 41 41 38 35 34 32 27 22 17 19 23 22 17 11 11 15 15 9 4 1 1 0 0 0 0
0 0 0 0 0 0 0 0 4 9 13 16 21 27 34 45 57 60 56 49 42 37 35 38 40 42 39 35 34 31 24 18 16 19 23 22 18 13 12 16 15 10 4 2 1 1 0 0 1
0 0 0 0 0 0 0 0 2 5 9 17 28 33 34 43 52 55 50 44 38 33 32 35 40 41 37 33 32 29 24 20 19 22 21 19 18 14 13 14 14 10 5 2 1 1 0 0 1
0 0 0 0 0 0 0 0 1 2 5 15 29 35 35 41 49 51 48 44 39 34 34 38 43 42 36 31 28 26 24 22 21 21 18 15 14 14 14 14 13 10 6 3 1 0 0 0 1
0 0 0 0 0 0 0 1 2 2 3 11 24 31 33 37 46 50 49 45 40 36 36 40 44 43 36 29 26 25 23 20 17 16 13 12 12 14 18 20 17 12 6 3 1 0 0 0 0
0 0 0 0 0 0 0 2 3 3 3 10 20 27 31 35 42 47 47 42 37 35 36 39 41 38 30 26 24 23 20 16 13 12 11 11 12 16 22 25 20 13 7 4 3 2 2 1 0
0 0 0 0 0 0 0 1 2 3 3 9 17 25 31 35 38 42 43 39 35 35 37 39 38 32 25 22 21 19 16 14 13 13 14 14 15 18 23 24 20 15 10 7 5 4 3 1 1
0 0 0 0 0 0 0 0 1 1 3 7 15 23 30 33 36 42 44 40 37 38 40 40 37 29 22 20 20 18 15 14 15 15 15 16 18 20 22 22 19 16 13 11 8 6 3 1 1
0 0 0 0 0 0 0 0 0 0 1 6 13 22 28 32 36 43 45 43 40 41 41 39 35 27 20 19 21 20 18 16 16 15 14 15 19 21 22 22 20 17 14 13 11 7 3 1 1
Wind_Speed
10 12 11 7 5 5 4 5 9 12 11 9 7 7 12 14 10 8 11 19 24 22 19 18 17 16 15 15 15 14 14 14 13 13 12 12 12 12 12 12 13 13 13 13 13 13 13 13 13
11 14 11 6 6 3 2 6 10 10 8 5 5 8 13 13 12 12 14 21 24 22 18 17 18 16 16 15 15 15 14 14 13 13 12 12 12 12 12 13 13 13 13 13 13 13 13 12 12
13 17 9 6 7 4 2 6 8 8 7 4 5 8 10 10 10 11 17 22 22 20 17 18 19 17 16 16 15 15 14 13 13 12 12 12 12 12 12 12 13 13 13 13 13 12 12 11 10
9 9 7 6 8 3 3 5 5 5 6 4 4 7 11 9 8 14 19 21 22 20 18 18 18 17 17 16 15 15 14 13 13 13 12 12 12 12 12 12 12 12 12 12 12 11 11 10 9
10 8 7 8 9 4 3 4 3 3 4 4 4 9 11 9 12 17 17 20 21 20 19 18 18 18 17 16 15 15 14 14 13 13 12 12 12 12 12 12 12 12 12 12 11 10 10 9 7
8 8 8 8 7 2 3 3 1 2 3 2 3 7 9 10 11 16 17 18 19 20 19 17 18 18 17 16 15 15 14 14 13 12 12 12 12 12 12 12 11 11 11 11 10 9 8 7 5
10 10 12 11 7 2 2 2 1 2 2 1 3 7 9 11 12 15 16 16 19 20 19 16 16 15 16 16 15 15 14 13 13 12 12 12 12 12 11 11 11 10 10 9 8 8 7 6 4
10 11 14 11 5 1 2 1 1 1 1 2 2 6 10 13 14 16 16 15 17 19 19 16 16 15 13 13 15 15 14 14 13 13 13 12 12 12 12 11 10 10 9 8 7 6 6 4 3
13 11 12 10 4 1 2 2 1 1 2 3 4 7 15 18 17 16 15 14 15 17 17 17 17 15 14 13 14 14 14 13 13 11 13 12 8 9 8 11 10 9 8 7 6 6 5 5 5
11 10 12 9 8 6 3 4 5 2 1 4 6 10 17 18 17 17 17 16 16 16 16 15 17 15 14 12 11 9 10 10 8 8 9 6 5 6 9 11 10 9 8 7 6 6 6 5 4
13 15 13 11 8 8 8 7 5 4 2 1 7 15 17 18 16 16 15 15 15 14 14 14 14 12 11 9 9 6 6 7 7 8 7 5 4 6 7 5 6 5 7 5 5 5 4 3 1
15 15 13 11 9 9 10 9 7 4 1 3 6 12 15 17 17 16 15 13 13 12 12 11 13 9 7 8 7 7 6 6 5 6 6 5 3 3 4 3 4 4 3 2 2 2 2 2 1
14 15 14 13 11 11 10 9 7 6 1 4 6 10 12 13 13 13 12 11 11 9 10 11 10 9 7 6 5 6 6 6 6 6 4 5 3 3 4 2 1 1 2 2 0 2 2 1 1
13 13 14 14 13 12 10 9 6 3 3 2 5 8 10 11 11 12 11 11 11 10 10 10 10 9 8 5 2 3 5 4 6 5 5 4 4 3 3 3 1 1 2 2 1 2 2 0 1
14 15 15 15 15 13 10 8 4 3 5 3 4 6 9 10 10 11 12 11 12 11 9 10 10 10 8 7 5 4 4 5 5 5 5 4 4 4 3 3 2 2 2 2 1 2 1 1 2
15 15 15 16 15 11 9 7 3 6 7 3 4 6 9 9 10 10 11 10 10 10 10 9 10 10 9 7 4 3 4 4 4 5 5 4 5 5 3 3 2 2 2 2 1 1 1 1 1
16 16 16 13 11 8 7 6 5 6 4 3 5 6 9 9 9 9 10 11 10 10 10 9 9 10 9 7 5 4 3 4 4 4 5 5 5 5 3 3 2 2 1 1 1 2 1 1 1
13 13 11 10 7 7 7 8 5 3 4 3 5 7 9 9 9 10 10 11 10 10 10 10 9 9 8 7 5 3 4 3 3 4 4 6 4 5 3 4 3 2 2 2 3 3 2 1 0
16 17 13 10 5 5 8 10 6 3 2 2 4 6 8 9 10 10 10 11 11 10 11 11 11 10 8 6 6 5 5 4 3 3 6 6 5 5 2 3 3 1 2 2 3 2 2 1 1
16 16 15 11 8 8 10 11 5 1 2 2 5 7 8 10 11 11 11 11 11 11 11 11 11 11 10 7 6 5 5 4 4 3 5 5 5 5 4 3 3 2 2 2 1 1 0 2 2
15 14 14 13 12 11 11 11 5 3 3 3 6 8 9 10 13 13 12 12 12 12 12 11 11 11 10 8 6 5 4 3 4 4 4 4 5 5 3 4 2 3 3 3 2 2 2 1 2
14 13 14 14 13 11 10 9 5 6 6 7 8 8 9 10 12 13 13 12 12 12 12 10 11 11 10 9 8 9 7 6 6 5 4 5 4 4 4 4 3 2 1 4 3 3 1 1 2
14 13 13 13 12 14 12 12 5 6 5 8 8 9 9 10 10 11 12 11 11 11 11 11 11 10 10 10 10 9 7 6 5 5 6 5 4 4 4 4 4 2 1 3 1 3 1 1 2
13 13 12 10 10 13 13 13 7 5 5 6 9 10 9 9 10 11 10 10 10 10 11 11 11 10 10 11 10 10 9 8 8 8 7 6 4 4 5 5 4 3 2 3 2 2 2 1 2
14 11 9 9 8 10 10 10 5 5 5 6 10 11 10 10 10 10 11 10 10 11 11 11 12 10 10 11 10 10 9 9 8 8 8 6 5 5 5 5 5 4 3 3 3 2 2 2 1
14 14 12 10 7 6 5 8 4 3 6 8 9 10 11 11 10 10 10 9 9 10 10 11 11 10 10 10 9 8 8 6 6 6 6 6 5 5 6 6 6 5 5 5 4 3 3 2 2
16 14 15 13 14 11 7 5 2 2 5 8 10 10 10 11 11 11 10 10 10 11 10 11 11 10 10 10 9 8 7 6 6 6 6 4 4 6 8 7 6 6 5 4 5 3 3 3 3
16 14 9 10 10 11 8 2 1 3 3 6 10 10 10 12 12 11 11 10 10 10 10 10 10 10 9 10 9 8 7 6 6 5 5 4 4 4 7 7 7 6 6 5 4 4 4 3 3
14 15 12 9 8 9 8 3 1 5 5 6 9 11 11 12 12 12 11 9 10 10 10 10 10 10 9 9 7 7 7 7 6 5 5 4 4 5 6 6 6 6 6 6 5 5 5 5 5
13 14 13 9 9 9 9 4 4 6 6 6 8 10 11 12 12 12 12 11 10 10 11 10 10 10 9 8 7 7 7 7 6 6 5 5 5 5 6 6 6 7 7 6 6 6 6 6 6
Wind_Direction
235 244 240 250 252 254 293 56 60 59 61 56 50 46 56 56 68 102 133 129 122 125 131 133 133 133 132 131 130 128 126 125 123 120 117 113 110 107 103 101 99 97 96 95 94 93 92 93 94
258 256 247 243 253 279 357 63 68 65 64 69 77 66 71 62 75 107 123 124 125 128 137 135 135 135 134 133 132 132 131 129 126 124 121 116 112 110 106 102 100 99 98 97 96 95 95 95 96
263 265 265 250 250 260 65 65 74 82 81 54 59 66 73 79 86 110 124 129 127 131 132 132 138 137 137 135 135 133 133 132 129 126 122 118 114 110 108 104 102 101 100 98 97 97 97 97 99
260 251 243 265 279 310 57 65 72 87 98 84 67 75 73 52 91 118 132 133 128 131 130 136 139 138 138 138 137 135 134 133 130 127 124 121 117 114 111 108 105 104 102 100 99 99 98 99 101
248 263 258 271 277 292 70 62 66 82 78 79 92 101 94 85 103 124 137 135 134 134 132 139 141 140 140 140 139 138 137 135 131 128 125 122 118 115 114 111 109 106 104 102 102 102 102 101 103
257 256 263 272 278 292 81 92 97 72 78 80 95 102 100 111 119 136 143 141 139 134 134 139 142 142 142 142 142 141 139 137 134 131 128 124 121 119 116 115 113 110 107 105 105 105 104 102 104
260 274 274 275 277 277 77 74 63 66 55 50 97 106 117 132 140 145 145 144 140 136 135 144 146 145 145 146 146 144 143 141 138 134 131 129 127 124 122 119 118 115 112 111 111 111 112 114 118
262 282 288 283 270 306 92 23 63 28 98 72 69 112 143 147 152 147 148 146 142 139 142 151 150 149 151 150 149 147 146 145 142 140 139 136 136 135 133 130 124 122 120 119 121 124 130 140 158
257 264 280 291 299 42 86 332 331 163 154 99 42 94 140 146 151 150 154 152 147 145 148 156 152 155 157 154 150 151 150 150 148 149 151 151 156 150 151 126 131 132 132 135 143 152 162 174 194
242 258 273 297 327 344 1 317 300 264 192 128 103 110 137 149 155 161 164 161 155 152 156 158 154 160 162 155 148 157 160 157 169 159 165 180 166 146 131 134 142 147 151 160 177 185 194 210 204
245 258 277 298 315 319 314 300 289 293 330 92 152 156 154 158 163 170 171 166 159 158 159 157 151 158 159 141 156 161 159 162 180 159 172 178 147 136 132 149 152 166 173 185 178 200 214 197 194
248 267 279 290 302 299 295 303 308 311 24 113 145 156 159 167 172 176 173 169 159 158 153 150 144 150 144 145 161 160 155 168 165 160 179 154 148 137 138 146 167 173 169 172 185 192 143 123 131
248 261 270 276 278 277 285 292 297 308 357 112 140 153 160 170 175 174 166 162 153 152 147 143 144 140 139 141 168 165 151 164 154 155 172 147 143 132 122 119 122 147 130 157 207 76 70 56 117
271 272 272 274 273 270 270 276 277 297 294 144 146 152 161 165 171 163 158 155 155 157 151 146 146 140 140 144 169 147 138 148 143 148 157 154 133 123 123 130 134 108 88 63 39 92 94 23 73
270 275 274 268 261 255 260 270 275 241 250 193 147 150 153 158 164 161 162 159 158 158 155 149 151 146 148 156 178 156 144 151 144 144 143 147 134 128 134 139 166 116 113 118 121 113 135 197 144
268 261 263 263 249 241 249 266 229 212 234 181 145 151 147 151 161 161 156 153 154 154 152 159 162 155 156 159 172 156 152 149 146 143 143 147 134 143 155 145 130 141 151 152 135 191 174 118 114
255 252 255 254 238 239 252 269 226 207 235 183 155 155 148 150 154 155 155 156 158 157 157 162 161 160 159 159 167 165 140 146 143 141 142 150 149 150 158 125 118 179 149 151 171 111 59 79 105
264 271 272 267 227 234 264 279 252 220 234 193 156 150 148 154 159 155 157 157 158 160 159 161 162 160 157 157 164 161 146 149 142 139 144 152 155 157 159 131 145 202 137 95 59 81 72 36 213
269 286 287 278 275 270 280 283 270 232 228 188 142 138 153 158 157 152 155 156 160 161 163 164 166 162 161 164 168 167 165 165 156 153 154 159 156 156 164 128 149 202 110 121 149 137 156 214 191
267 279 285 287 288 281 283 285 280 240 251 197 151 158 166 156 152 153 156 159 163 164 165 165 166 165 171 170 165 167 163 170 168 162 149 156 150 156 168 135 168 142 119 124 123 100 260 216 176
261 266 275 282 285 273 273 277 267 224 235 194 172 163 155 163 160 160 164 166 166 167 170 172 170 171 175 167 160 161 155 162 160 152 152 159 160 171 155 150 162 156 170 155 180 192 232 269 184
258 262 272 276 278 280 276 280 244 196 200 203 183 159 156 161 158 161 165 169 170 171 171 168 170 173 171 168 170 169 172 173 170 159 158 162 167 169 161 158 145 180 159 142 196 185 230 252 254
261 267 270 276 279 279 276 275 265 170 198 201 168 151 155 155 153 157 164 168 171 171 169 168 170 173 173 177 175 175 179 172 161 154 155 166 167 173 177 163 157 175 170 149 135 127 245 260 273
253 259 263 265 271 269 274 276 262 190 192 176 153 146 147 146 148 152 158 160 169 169 169 167 168 172 174 179 178 182 178 168 162 160 164 170 166 180 182 167 160 179 173 141 142 148 204 301 343
236 243 250 246 244 258 283 276 262 165 159 150 145 142 145 143 147 153 159 164 167 170 171 169 167 169 171 176 179 182 177 172 167 165 171 177 172 177 179 172 167 181 157 155 167 178 218 211 275
230 235 246 261 260 265 262 253 265 146 124 125 131 138 144 145 148 154 159 163 167 170 167 163 164 167 170 173 176 178 172 172 172 175 175 186 181 174 168 165 171 180 175 180 171 191 203 193 211
242 238 248 260 269 268 246 224 226 167 149 142 141 145 153 150 149 153 158 165 168 169 167 165 161 162 168 171 170 172 174 179 175 175 183 180 175 168 165 171 175 182 182 180 164 216 203 164 199
241 249 254 257 269 278 273 249 248 253 222 168 153 157 158 151 153 152 156 163 164 162 159 158 159 164 168 166 168 172 175 174 165 169 178 172 178 165 162 175 178 180 181 184 185 210 194 188 212
222 235 248 264 264 271 281 284 142 230 218 201 165 157 154 153 154 151 154 156 154 154 155 158 157 159 163 168 170 164 167 169 165 170 172 165 173 165 174 181 181 186 186 187 196 222 195 196 212
232 231 234 245 260 273 283 272 206 219 226 192 151 144 147 149 150 150 151 152 152 156 157 159 158 162 166 166 163 162 164 167 171 175 171 167 176 182 185 190 190 195 193 190 194 218 215 201 208